Location: Shades State Park
(39.9310°N, 87.0690°W)
Time: 12:40:18
(UTC-04:00)

Daily predictions for brighter satellites

Satellite Brightness Start Highest point End
(mag) Time Altitude Azimuth Time Altitude Azimuth Time Altitude Azimuth
Meteor 2-10 Rocket 4.2 21:28:11 10° N 21:33:48 47° ENE 21:39:16 10° SSE
SPOT 5 4.4 21:30:12 10° ESE 21:34:17 24° ENE 21:38:26 10° NNE
ALOS 2.6 21:29:47 10° S 21:34:26 73° WSW 21:39:08 10° NNW
Cosmos 1892 2.9 21:41:31 10° S 21:45:13 51° E 21:48:58 10° NNE
H-2A R/B 3.5 21:44:24 10° S 21:48:00 51° W 21:51:39 10° NNW
ERS-1 Rocket 3.1 21:43:57 10° SSE 21:48:55 63° ENE 21:53:54 10° N
Cosmos 909 Rocket 4.3 21:43:45 10° SSW 21:50:06 69° ESE 21:57:40 10° NE
PSLV R/B 3.3 21:51:57 10° W 21:55:25 88° SSW 21:58:46 11° ESE
Abrixas rocket 3.1 21:57:56 10° WNW 22:01:12 43° SW 22:04:01 13° SSE
Coronas F rocket 1.1 21:58:40 10° S 22:01:19 88° E 22:03:58 10° N
CZ-4 DEB 3.4 21:59:17 10° S 22:02:23 54° W 22:05:31 10° NNW
Cosmos 2154 Rocket 4.5 22:00:41 10° SSE 22:06:25 40° E 22:12:08 10° NNE
USA 234 4.2 22:02:35 10° ENE 22:07:37 23° ESE 22:12:37 10° S
BREEZE-M DEB (TANK) 3.5 22:06:39 10° W 22:09:00 48° NNW 22:13:45 10° NE
deb Chang Zheng 4 3.6 22:05:42 10° NNE 22:10:06 65° ESE 22:14:29 10° S
SL-8 R/B 3.8 22:06:11 10° WSW 22:11:01 86° NNW 22:15:51 10° ENE
SL-08 ROCKET BODY 4.4 22:05:27 10° S 22:11:30 81° E 22:17:28 10° N
Cosmos 2184 Rocket 4.0 22:07:12 10° S 22:13:22 88° W 22:19:34 10° N
Cosmos 1908 Rocket 4.1 22:10:37 10° SSE 22:14:36 39° E 22:18:44 10° NNE
COSMOS 2406 3.2 22:09:24 10° NNW 22:15:12 84° ENE 22:20:21 13° SSE
Cosmos 1733 Rocket 3.2 22:15:14 10° S 22:19:39 77° W 22:24:04 10° N
USA 245 4.4 22:19:18 17° E 22:20:30 21° ENE 22:23:17 10° NNE
Cosmos 1378 Rocket 4.2 22:17:54 10° N 22:21:54 36° ENE 22:24:19 20° SE
ARGOS 4.1 22:19:51 16° ESE 22:23:15 32° ENE 22:27:58 10° N
ATLAS 5 CENTAUR R/B 2.5 22:17:34 10° NW 22:23:39 85° WSW 22:28:52 16° SSE
Cosmos 2056 Rocket 3.6 22:18:33 10° SSW 22:23:43 79° WNW 22:28:52 10° NNE
EO 1 Delta rocket 4.3 22:17:19 10° NNE 22:23:48 71° E 22:28:55 10° S
Cosmos 1184 Rocket 4.1 22:24:38 21° ESE 22:25:07 22° E 22:27:46 10° NE
CZ-3C R/B 4.1 22:04:10 10° SW 22:25:23 22° SSW 22:30:49 14° SSE
Meteor 1-10 Rocket 4.3 22:20:39 10° N 22:26:32 83° W 22:32:14 10° S
Cosmos 1862 3.6 22:28:46 17° SSE 22:31:36 49° E 22:35:33 10° NNE
Cosmos 2278 Rocket 2.7 22:27:34 10° S 22:32:47 39° ESE 22:38:01 10° NE
Cosmos 1844 3.7 22:30:03 10° S 22:35:43 65° ESE 22:41:28 10° NNE
CENTAUR R/B 3.5 22:29:22 10° NW 22:37:09 60° WSW 22:44:20 14° SSE
Nimbus 7 Rocket 4.5 22:33:23 10° NNE 22:39:20 83° WNW 22:45:18 10° SSW
Cosmos 1825 2.3 22:37:57 25° SSE 22:39:55 52° E 22:43:39 10° NNE
Cosmos 2084 3.7 22:37:52 20° S 22:40:00 36° ESE 22:43:33 10° NE
SL-27 R/B 2.8 22:37:00 10° NNW 22:40:38 65° WSW 22:42:44 23° S
Cosmos 1844 Rocket 2.8 22:38:00 10° SSW 22:43:40 81° WNW 22:49:21 10° NNE
COSMOS 2487 3.6 22:40:40 10° N 22:43:56 31° ENE 22:44:48 27° E
COS B Rocket 3.3 22:40:31 10° N 22:44:45 89° W 22:47:18 21° S
H-2A R/B 2.8 22:41:12 12° S 22:45:06 50° W 22:49:15 10° NNW
CZ-4 SHROUD 3.2 22:50:15 37° S 22:51:19 76° W 22:54:25 10° NNW
Cosmos 2082 Rocket 3.7 22:48:15 10° N 22:52:44 23° NE 22:55:25 17° E
YAOGAN 6 2.4 22:51:59 35° S 22:53:21 88° WSW 22:56:53 10° NNW
Cosmos 1408 2.4 22:52:39 29° S 22:54:26 82° E 22:58:07 10° N
Meteor 1-27 Rocket 3.8 22:51:28 10° NNW 22:57:03 78° W 23:00:52 21° S
MetOp-A 4.3 22:55:27 20° S 22:59:10 72° WSW 23:04:32 10° NNW
Cosmos 1782 4.3 22:57:08 10° NNW 23:00:47 34° W 23:04:02 12° SSW
Envisat 4.2 22:57:06 10° SSW 23:01:49 39° W 23:06:34 10° NNW
Cosmos 2218 Rocket 4.5 22:59:14 28° SE 23:02:02 43° E 23:08:02 10° NNE
Nadezhda 3 Rocket 4.2 22:57:12 10° N 23:03:33 76° W 23:08:16 19° S
Cosmos 2297 4.3 23:02:58 32° SE 23:04:16 36° ESE 23:09:27 10° NE
Okean 2 Rocket 3.0 23:02:50 34° S 23:04:40 69° E 23:09:04 10° NNE
Landsat 7 4.3 23:05:01 35° ESE 23:06:27 45° ENE 23:10:59 10° N
H-2A R/B 2.7 23:05:40 31° ESE 23:07:36 42° ENE 23:12:36 10° N
PSLV R/B 4.4 23:07:12 28° SW 23:08:01 34° W 23:10:46 10° NNW
Cosmos 1238 Rocket 2.6 23:06:44 10° NNW 23:09:51 64° W 23:10:41 45° SSW
Cosmos 1242 Rocket 2.6 23:06:50 10° N 23:10:26 56° E 23:10:42 54° E
Atlas Centaur 2 3.2 23:08:18 10° SW 23:09:15 14° SW 23:09:15 14° SW
ERBS 4.0 23:08:29 10° WNW 23:11:19 24° SW 23:11:51 23° SW
Cosmos 1420 Rocket 4.0 23:08:59 29° S 23:11:32 62° ESE 23:16:41 10° NNE
SPOT 5 4.0 23:08:05 16° SSW 23:11:58 45° W 23:17:06 10° NNW
Cosmos 1606 3.9 23:10:49 10° NNW 23:14:30 39° W 23:16:30 22° SSW
NOAA 11 4.2 23:14:14 33° SSE 23:16:50 87° WSW 23:22:23 10° NNW
Cosmos 2341 Rocket 4.3 23:14:23 11° SSW 23:20:29 67° W 23:26:45 10° N
Terra 2.3 23:21:17 40° ESE 23:22:12 45° ENE 23:26:45 10° N
SPOT 1/Viking Rocket 3.8 23:20:10 30° S 23:22:40 64° WSW 23:27:51 10° NNW
Cosmos 1959 Rocket 4.4 23:22:50 36° SSE 23:25:21 66° E 23:31:25 10° NNE
IGS 5A 4.0 23:25:17 40° E 23:25:29 41° ENE 23:29:24 10° N
Cosmos 1452 Rocket 4.4 23:21:55 10° SW 23:27:00 50° WNW 23:32:08 10° N
Cosmos 1782 Rocket 4.2 23:24:25 23° SSW 23:27:02 53° W 23:31:26 10° N
Timation 2 Rocket 3.8 23:27:09 10° NNW 23:33:10 76° ENE 23:35:01 46° SE
Cosmos 614 Rocket 4.0 23:28:27 10° NNW 23:33:31 61° ENE 23:34:27 51° ESE
Cosmos 1140 Rocket 3.4 23:31:32 10° NNW 23:36:41 80° WSW 23:37:56 52° S
DNEPR-1 R/B 3.7 23:35:05 10° NNW 23:40:28 75° ENE 23:41:08 63° ESE
Cosmos 1975 Rocket 4.1 23:39:39 10° NNW 23:43:41 39° W 23:44:54 32° SW
Meteor 1-20 Rocket 4.4 23:43:42 47° ESE 23:44:11 49° E 23:49:32 10° NNE
CARTOSAT-1 3.4 23:44:46 80° ESE 23:44:55 82° ENE 23:49:15 10° N
SL-8 Rocket 4.1 23:41:37 28° SSW 23:45:09 72° W 23:51:25 10° N
Meteor 1-25 Rocket 4.3 23:47:59 54° SE 23:49:04 65° E 23:54:50 10° NNE
USA 234 3.2 23:44:31 10° NE 23:51:05 87° NW 23:57:37 10° SW
